Regional Weather Roundup
Issued by NWS Sioux Falls, SD

Home | Current Version | Previous Version | Text Only | Print | Product List | Glossary On
Versions: 1 2 3 4 5 6 7 8 9 10 11 12 13 14 15 16 17 18 19 20 21 22 23 24 25 26 27 28 29 30 31 32 33 34 35 36 37 38 39 40 41 42 43 44 45 46 47 48 49 50
000
ASUS43 KFSD 281010
RWRFSD

WEATHER ROUNDUP FOR SE SOUTH DAKOTA/SW MINNESOTA/NW IOWA
NATIONAL WEATHER SERVICE SIOUX FALLS SD
500 AM CDT FRI JUL 28 2017

NOTE: "FAIR" INDICATES FEW OR NO CLOUDS BELOW 12,000 FEET WITH NO
SIGNIFICANT WEATHER AND OR OBSTRUCTIONS TO VISIBILITY.


SDZ038>040-050-052>070-281100-
SOUTHEAST SOUTH DAKOTA

CITY           SKY/WX    TMP DP  RH WIND       PRES   REMARKS
BROOKINGS      CLOUDY    65  63  93 CALM      30.10S
CHAMBERLAIN    CLOUDY    69  65  88 SE6       30.07S
HURON          CLOUDY    67  64  90 CALM      30.08R
MADISON        FAIR      59  59 100 NE5       30.09F
MITCHELL       CLOUDY    66  64  93 CALM      30.07S
SIOUX FALLS    PTCLDY    62  61  96 NE3       30.08S
WINNER         PTSUNNY   69  62  78 SE5       30.07S
YANKTON        MOCLDY    63  60  90 N3        30.07R
$$

MNZ071-072-080-081-089-090-097-098-281100-
SOUTHWEST MINNESOTA

CITY           SKY/WX    TMP DP  RH WIND       PRES   REMARKS
FAIRMONT       PTCLDY    61  60  97 NW3       30.07R
JACKSON        PTCLDY    59  59 100 CALM      30.08S
LUVERNE        CLEAR     59  55  88 CALM      30.09S
MARSHALL       CLOUDY    62  61  96 CALM      30.08S
MONTEVIDEO     CLOUDY    61  55  82 CALM      30.09R
PIPESTONE      PTCLDY    63  59  88 CALM      30.09F
REDWOOD FALLS  PTCLDY    64  60  87 CALM      30.07R
TRACY          MOCLDY    65  63  90 W3        30.09R
WINDOM         PTCLDY    61  57  88 CALM      30.08S
WORTHINGTON    CLEAR     58  56  93 CALM      30.09S
$$

IAZ001>003-012>014-020>022-031-032-NEZ013-014-SDZ071-281100-
NORTHWEST IOWA

CITY           SKY/WX    TMP DP  RH WIND       PRES   REMARKS
DENISON        CLOUDY    63  63 100 CALM      30.06R FOG
ESTHERVILLE    PTCLDY    58  58 100 NW6       30.06S
ORANGE CITY    CLEAR     66  63  88 NE5       30.06S
SHELDON        CLEAR     55  54  94 CALM      30.05F
SIOUX CITY     CLOUDY    63  63 100 CALM      30.04S
SPENCER        CLEAR     57  56  96 NW5       30.07R
STORM LAKE     CLEAR     64  63  94 NE7       30.06S
$$

ABBREVIATIONS USED IN REMARKS
   TC - TEMPERATURE IN CELSIUS
  WCI - WIND CHILL INDEX
   HX - HEAT INDEX
  VSB - VISIBILITY




USA.gov is the U.S. government's official web portal to all federal, state and local government web resources and services.